GFSWCAN_sfc_thetae_096.txt.gz
Theta_e
301 300 300 299 299 300 299 299 299 300 299 299 299 299 299 299 300 295 291 293 287 279 284 290 289 283 282 281 275 280 278 279 278 274 274 274 270 279 278 285 282 280 278 278 278 276 274 285 285 281 284 285 283 282
300 300 300 299 299 299 299 299 299 299 299 299 299 298 298 299 299 298 289 294 293 284 285 289 290 291 289 288 283 282 280 280 283 276 280 280 278 279 281 276 286 279 282 279 281 277 283 285 284 287 287 284 283 283
300 300 299 298 299 299 299 299 299 299 299 299 299 298 298 298 299 296 290 291 288 280 282 285 287 292 294 292 290 281 283 286 285 286 283 282 278 283 280 277 280 282 285 282 281 282 283 284 284 284 285 283 284 284
299 299 298 298 299 299 299 299 299 299 299 300 299 299 298 298 298 296 289 291 289 283 277 284 294 291 295 294 290 290 289 289 288 286 284 283 280 288 282 281 279 281 283 282 280 282 283 283 284 284 283 283 283 282
299 298 298 298 299 298 298 298 298 299 299 299 298 298 298 297 297 293 290 291 292 285 278 281 288 292 293 292 291 290 288 286 283 281 279 281 285 286 286 280 278 282 280 279 276 282 282 281 283 285 282 281 281 279
298 298 298 298 298 298 298 298 298 298 299 299 298 298 297 297 297 289 282 292 295 291 282 275 287 289 291 291 289 288 287 286 284 282 280 283 288 286 279 271 280 284 285 284 280 284 283 283 284 283 281 280 280 279
296 296 297 298 297 297 297 297 298 298 299 299 298 297 297 297 292 287 285 293 298 292 281 276 279 288 292 290 288 287 288 286 285 284 282 282 284 287 280 277 277 283 284 283 286 284 281 282 280 282 282 282 283 282
297 298 298 297 297 297 297 297 297 298 298 297 297 297 298 298 294 289 292 298 297 287 285 278 277 282 290 282 280 286 283 284 284 283 284 282 285 285 278 281 281 284 283 282 282 284 282 283 283 283 282 280 278 278
297 297 297 297 297 297 297 297 297 297 297 297 297 298 291 288 286 290 298 297 292 289 279 281 272 276 287 284 283 284 288 276 286 282 281 282 277 277 281 282 283 284 283 281 284 284 281 279 280 280 279 278 276 275
297 297 297 297 297 297 297 297 297 297 297 298 290 287 276 286 298 295 291 286 286 287 284 280 280 274 283 277 275 276 277 281 281 281 284 277 278 282 283 283 284 285 286 285 281 280 280 279 279 278 277 278 277 276
297 296 297 297 296 296 297 297 297 297 295 288 285 284 292 298 291 287 280 279 276 279 283 283 280 277 285 277 275 278 276 277 274 278 278 279 276 279 281 281 281 282 282 282 282 282 282 280 278 277 276 276 276 275
297 296 297 297 297 297 297 297 297 289 286 290 291 294 292 288 285 281 279 278 279 278 279 278 280 282 283 286 278 281 281 278 273 283 278 272 275 279 279 279 279 279 278 278 279 279 278 278 278 276 275 273 272 271
296 297 297 297 297 296 297 297 296 297 294 290 289 285 284 283 276 271 270 273 271 277 281 281 276 280 284 281 278 279 277 271 279 273 274 275 278 279 278 278 277 277 276 276 275 275 275 273 273 271 269 266 267 265
296 296 296 296 296 296 296 297 297 293 288 282 280 277 276 275 278 274 274 274 278 277 279 281 277 277 283 278 273 271 274 277 276 273 273 274 278 278 276 276 274 270 270 270 269 270 268 268 266 265 264 262 264 262
296 296 296 296 296 296 297 296 295 291 286 280 282 276 276 278 283 284 285 281 282 279 279 278 280 279 276 279 280 276 276 271 274 273 275 276 277 276 272 271 270 269 266 266 264 266 265 264 264 262 260 261 263 261
296 294 291 296 296 296 295 293 290 288 285 282 281 277 283 283 281 283 284 284 287 285 279 285 282 280 279 281 279 277 275 275 277 275 277 277 276 274 272 271 270 269 269 268 268 267 266 264 264 264 263 262 260 261
293 286 295 296 296 295 294 288 287 280 283 281 279 283 281 284 284 283 285 284 287 280 276 279 275 276 282 279 277 278 277 275 273 276 277 276 273 272 271 270 271 270 269 269 268 269 267 267 268 269 268 269 268 268
286 292 295 295 294 291 284 288 284 281 278 278 276 280 281 283 284 284 285 285 285 284 284 280 284 276 271 277 277 277 277 277 277 277 271 270 270 271 273 272 272 272 271 271 271 271 271 270 271 271 272 272 271 272
289 292 295 294 290 283 279 282 285 280 277 281 280 278 282 282 283 284 284 285 285 287 284 282 278 273 274 280 280 277 277 274 270 270 271 271 273 274 272 272 272 271 272 273 274 273 273 274 274 273 272 273 271 271
295 295 294 295 293 285 281 282 285 283 276 277 278 278 281 281 282 283 283 284 284 284 282 277 277 276 274 272 277 275 277 275 274 272 272 274 273 274 274 274 272 273 273 275 275 272 273 272 273 272 271 271 267 265
292 292 294 291 286 287 284 281 282 283 281 278 279 279 274 281 281 281 282 284 282 282 280 281 280 272 281 281 279 279 277 276 274 273 273 272 274 275 275 275 275 274 273 271 270 269 271 269 268 269 264 259 258 260
290 292 288 287 282 283 282 285 283 281 279 279 281 281 277 278 278 281 283 281 279 274 273 274 272 275 279 278 278 280 279 278 277 274 273 274 273 272 274 271 273 269 268 268 271 268 265 268 267 266 261 259 261 262
291 290 285 283 277 278 274 285 279 279 274 277 279 276 277 277 280 284 279 281 275 273 274 276 278 280 279 280 280 280 281 279 275 274 273 273 272 270 273 271 273 274 272 271 272 268 264 264 263 260 259 259 257 257
291 284 276 277 275 271 278 279 281 281 280 279 276 272 277 279 281 278 277 276 272 271 275 276 277 276 277 277 274 275 275 276 273 269 272 274 274 274 273 272 273 272 272 271 270 267 264 258 260 261 256 256 255 255
277 273 280 277 277 273 273 274 275 275 269 277 277 276 275 278 275 275 274 269 275 273 272 279 279 278 272 269 269 272 274 277 275 274 272 275 273 272 271 270 270 271 271 267 261 259 257 255 255 255 256 254 256 254
275 276 275 275 272 274 275 271 272 272 276 276 276 276 273 274 271 268 271 269 272 276 278 278 278 276 274 275 275 274 275 277 276 271 273 275 274 271 269 268 265 265 265 262 263 262 259 256 256 257 256 256 255 255
273 270 276 279 277 278 272 276 277 273 273 274 276 275 276 273 271 267 269 271 272 268 274 275 278 277 274 273 273 274 274 275 273 271 270 270 269 270 271 268 264 264 262 262 260 260 259 256 255 254 253 252 251 251
272 275 273 273 276 276 268 268 266 268 269 275 276 273 273 270 265 267 269 272 276 272 274 276 278 276 273 272 272 271 271 270 269 269 269 268 267 266 267 267 267 266 262 260 259 259 260 259 257 253 253 252 253 251
268 272 274 270 270 269 266 270 270 268 269 270 269 265 263 267 266 267 270 272 273 272 271 272 273 273 272 272 272 272 271 270 269 266 264 262 261 264 261 262 262 260 259 260 265 262 262 259 256 256 254 256 253 249
271 274 269 267 267 266 263 266 266 269 270 268 268 268 266 265 266 264 269 271 269 268 265 271 272 272 270 269 267 267 269 267 267 268 265 263 262 263 262 262 258 255 257 260 260 260 263 258 260 255 253 251 248 248
275 275 270 268 265 266 268 270 269 268 266 267 264 262 260 261 264 265 265 264 271 269 272 270 269 270 269 268 267 266 265 268 269 269 268 267 265 263 260 259 259 261 262 261 259 257 255 253 250 250 250 247 244 244
269 268 266 264 264 265 264 262 262 260 264 261 261 257 258 259 258 261 267 268 271 270 268 269 268 264 268 269 268 268 268 267 266 266 266 265 263 262 262 261 260 261 261 258 257 254 254 252 250 248 245 243 242 242
268 263 259 258 261 262 262 264 267 262 262 262 258 258 261 260 258 262 266 267 266 266 267 266 267 266 266 266 265 264 264 264 265 267 266 265 264 263 260 260 260 260 258 256 253 253 252 250 246 243 242 241 241 241

GFSWCAN_sfc_thetae_102.txt.gz
Theta_e
300 300 300 299 299 299 299 299 299 298 298 298 299 300 301 301 299 293 290 291 288 282 284 287 286 281 281 279 274 279 277 277 276 271 274 272 275 278 277 280 278 277 274 273 275 272 271 282 282 278 280 281 280 279
300 299 299 299 299 299 299 299 299 299 299 298 299 300 301 300 299 295 288 292 291 285 284 287 288 287 285 284 281 281 277 279 277 276 278 280 276 278 278 274 282 275 279 277 278 276 281 282 281 284 284 281 280 279
299 299 299 299 299 299 299 299 299 298 298 298 299 299 300 300 299 295 289 288 288 284 284 285 285 289 291 288 288 281 281 284 284 283 281 279 273 279 275 275 278 280 284 279 279 280 281 282 282 283 282 281 281 281
299 298 298 299 299 299 299 299 299 299 298 298 298 299 299 299 299 296 289 289 287 284 279 283 291 288 291 290 289 288 286 286 285 286 283 281 277 286 274 277 277 279 282 280 279 281 281 281 281 281 280 280 279 279
299 298 298 298 298 298 298 298 299 299 299 298 298 298 299 299 297 294 291 291 289 285 279 281 286 289 291 290 288 287 286 283 280 279 279 280 283 285 280 278 276 281 279 277 274 281 280 279 281 281 279 278 278 277
299 298 298 298 298 298 298 298 298 299 298 298 298 299 298 297 294 288 283 290 293 287 282 276 284 286 288 288 287 286 285 283 281 280 278 282 286 285 275 273 278 282 283 281 278 281 279 280 280 280 279 278 278 277
298 298 298 298 298 298 298 298 298 298 298 297 298 298 298 298 292 286 285 289 295 287 280 276 278 285 288 287 285 284 287 282 282 281 280 281 285 284 279 271 275 282 282 283 281 281 277 280 277 280 280 280 279 278
298 298 298 297 297 298 298 298 298 298 297 298 298 297 297 297 295 288 291 294 290 284 282 274 276 281 287 281 279 283 282 281 282 281 282 283 286 281 273 279 278 280 282 282 282 281 279 280 280 281 280 279 277 276
297 297 297 296 297 297 297 298 298 297 297 297 296 295 290 287 284 286 297 293 288 284 277 276 273 270 284 281 281 282 283 273 284 282 281 283 277 275 280 280 281 282 279 280 281 280 280 279 278 278 278 277 276 274
297 296 296 296 297 297 297 297 297 297 297 295 289 283 277 285 296 291 284 278 281 282 281 276 278 277 281 276 273 275 279 280 278 280 284 279 275 281 282 283 284 284 282 281 278 278 280 278 278 278 277 277 276 275
296 296 296 296 296 297 297 297 297 295 293 286 285 285 290 295 289 281 272 274 279 276 279 279 279 276 282 275 274 276 275 279 272 278 280 276 275 277 280 280 281 281 282 283 282 281 281 280 278 277 276 277 277 276
296 296 296 296 296 296 297 297 294 287 285 289 289 292 290 286 282 275 274 277 277 277 278 276 278 280 281 283 276 279 278 277 271 279 279 270 273 278 279 278 278 278 279 279 281 280 279 279 278 277 276 274 272 271
297 296 296 296 296 297 296 296 296 296 292 287 287 283 282 279 270 268 268 271 269 276 279 277 274 277 280 280 275 279 276 270 278 273 271 270 278 278 278 278 276 277 277 276 275 275 275 273 272 272 268 265 266 265
297 296 296 296 296 296 296 296 295 292 284 279 280 275 274 275 276 271 272 271 276 277 282 279 279 276 282 278 274 268 271 275 274 267 270 271 277 276 278 276 274 269 270 270 269 268 267 265 262 261 261 260 263 261
296 296 296 296 296 296 296 295 293 288 284 280 279 275 275 274 279 282 282 283 283 283 283 277 278 276 279 273 279 273 276 269 269 268 268 267 276 277 275 272 271 267 264 264 262 264 263 263 262 260 257 259 261 259
296 293 291 296 296 295 294 290 286 283 281 281 280 275 277 279 278 281 283 283 286 284 283 284 281 279 278 279 277 276 273 269 270 267 274 273 276 275 273 269 267 265 265 264 264 264 263 262 263 262 261 261 258 260
292 286 295 296 295 294 292 283 279 277 279 280 274 275 275 281 277 281 282 283 286 281 280 282 276 274 280 277 275 277 271 276 272 274 276 277 276 274 269 266 265 266 265 265 264 265 264 264 266 267 267 266 267 266
287 293 296 295 290 288 281 280 278 280 277 277 274 275 279 282 282 282 284 284 285 284 283 281 284 279 275 275 278 274 271 275 269 274 276 276 274 270 268 266 266 268 268 268 268 268 268 268 269 269 270 270 269 269
292 293 295 293 288 282 278 280 281 277 276 275 278 281 281 281 282 283 283 284 285 286 280 282 280 278 279 277 271 267 263 266 270 269 265 264 267 269 268 269 269 269 270 270 271 270 270 272 272 271 270 270 267 268
295 294 294 293 291 282 279 280 285 280 277 276 278 280 280 280 281 282 282 283 284 281 279 275 272 280 281 271 271 270 268 270 271 268 269 269 270 271 271 271 271 271 271 273 272 271 271 270 270 270 269 269 267 265
291 291 291 289 285 283 282 281 279 281 280 277 277 280 273 281 280 280 281 283 281 280 273 272 269 271 278 277 276 274 274 275 272 272 270 270 272 273 272 271 272 272 270 269 269 268 267 266 267 268 265 259 256 258
289 291 287 286 281 281 279 283 283 281 279 281 281 281 272 267 268 279 282 280 276 273 272 271 272 273 276 276 276 278 277 277 276 273 271 273 272 271 270 269 271 266 267 267 270 267 265 267 267 265 262 256 259 259
290 286 282 282 274 272 272 284 280 279 273 278 280 275 271 275 273 280 277 277 272 269 271 273 276 280 277 278 278 278 278 276 273 272 271 271 270 267 269 269 269 267 267 269 271 268 266 266 264 260 258 257 255 254
289 279 274 272 273 265 277 274 281 279 279 277 276 270 272 272 279 272 271 271 268 268 272 274 276 275 275 274 271 272 273 273 270 267 269 271 270 268 269 269 269 271 272 271 270 268 266 262 261 261 256 253 252 253
274 273 273 264 275 275 272 269 276 273 267 274 271 269 275 277 275 270 270 268 268 266 267 271 277 278 276 273 267 269 271 274 272 271 270 271 269 269 270 269 269 270 271 269 266 265 259 257 256 258 257 254 257 255
266 266 271 268 266 269 269 264 265 266 266 267 268 272 271 276 273 267 270 265 271 275 277 275 276 276 276 276 272 272 272 275 274 271 272 271 271 269 266 266 267 267 268 269 267 264 260 258 259 259 257 256 256 256
268 265 275 277 275 274 268 267 273 268 265 265 268 268 271 272 265 268 265 267 268 272 276 272 278 277 274 272 272 272 272 272 272 270 270 270 270 271 271 270 269 268 265 266 264 264 262 260 259 257 255 252 251 250
273 271 269 273 273 271 264 264 264 268 269 273 272 270 269 269 267 264 265 266 275 275 275 272 271 273 271 269 269 269 268 268 268 269 269 268 267 267 266 266 266 266 263 263 262 261 261 260 257 256 256 254 248 245
272 271 273 272 274 275 273 270 270 268 268 270 268 265 264 264 260 261 264 267 273 272 265 266 269 270 269 269 269 269 269 270 270 266 264 262 261 263 264 264 264 263 263 264 265 261 259 257 256 255 253 251 244 242
270 273 271 268 272 271 268 266 265 264 265 264 265 265 264 261 260 262 262 264 265 263 261 260 261 264 267 266 266 266 266 267 269 270 267 264 264 264 263 263 262 261 262 263 264 262 262 257 256 251 249 246 244 243
270 266 265 264 264 262 264 265 266 265 265 261 257 260 260 258 261 260 260 261 259 261 265 263 264 265 267 268 267 267 265 266 266 266 267 267 265 264 263 262 259 259 259 258 257 255 255 252 252 250 248 245 241 241
269 267 265 262 263 265 266 265 265 265 259 262 261 255 257 258 261 259 260 261 263 262 259 262 264 264 267 268 266 265 267 266 266 266 266 265 264 262 261 260 259 259 257 256 255 255 254 251 249 247 246 244 240 239
266 265 266 267 266 266 266 269 267 263 259 258 256 255 257 260 261 259 263 263 261 262 261 262 265 266 265 265 264 265 265 266 266 267 266 264 263 262 260 259 258 257 256 255 254 253 252 250 247 245 243 240 238 238

GFSWCAN_sfc_thetae_105.txt.gz
Theta_e
300 299 299 299 298 298 298 299 298 297 298 299 300 300 301 300 299 294 291 292 290 285 286 288 287 283 282 282 279 282 281 281 280 276 276 276 276 279 278 280 277 277 275 274 275 272 271 281 282 277 279 281 280 280
300 299 298 298 298 297 297 298 298 298 298 299 300 301 300 299 298 295 290 292 292 287 286 289 290 290 289 286 283 282 280 280 281 280 280 281 278 279 278 275 282 276 279 278 278 277 281 282 281 283 283 280 280 279
299 299 298 298 298 298 298 299 299 298 299 299 300 300 300 299 298 295 290 290 291 287 287 287 287 292 293 290 291 284 284 286 284 286 283 281 277 281 276 276 278 281 284 279 280 280 280 281 282 282 282 281 281 281
299 298 298 297 298 298 299 299 299 299 299 299 300 300 299 299 299 296 290 291 289 287 282 285 292 290 293 293 291 290 288 288 288 287 284 282 280 286 278 279 278 280 282 280 279 280 281 281 281 281 280 280 279 280
298 298 297 298 298 298 298 298 299 299 298 298 299 299 298 297 297 295 293 292 290 288 282 284 288 290 291 291 290 290 288 286 285 283 283 282 285 285 281 281 278 281 279 278 277 281 280 279 281 282 279 279 279 278
298 296 298 298 298 298 298 298 299 298 298 298 298 298 298 297 293 289 285 291 294 289 286 281 286 289 290 290 289 288 288 286 285 284 283 285 287 286 278 275 280 282 283 283 279 281 281 280 281 281 279 279 279 278
297 297 298 298 298 298 298 298 298 298 298 299 299 298 298 297 293 288 285 291 295 290 285 281 282 287 290 288 287 287 288 286 286 284 284 284 286 286 281 275 279 282 283 282 283 282 279 280 278 280 280 279 279 278
298 297 297 298 298 298 298 298 298 298 298 297 297 298 297 297 294 289 293 294 291 286 285 279 280 284 288 284 284 286 285 285 285 285 285 285 286 283 276 279 281 282 283 283 282 282 281 281 281 280 280 279 277 277
297 297 297 298 297 298 298 298 297 297 297 296 295 294 291 288 286 288 296 291 289 286 280 280 277 277 286 283 285 285 285 281 285 284 284 285 280 277 280 280 280 281 282 281 280 281 281 280 279 279 279 278 276 275
296 296 297 297 297 297 297 298 297 296 295 294 290 285 280 288 296 291 285 282 283 284 284 279 281 281 284 281 280 282 284 282 280 283 285 281 278 281 282 284 284 284 283 283 280 279 279 279 279 279 278 278 277 276
296 296 297 297 297 297 297 297 295 294 293 287 285 285 290 295 288 282 276 278 280 279 282 281 282 281 285 281 280 280 280 282 276 280 281 279 278 279 281 281 282 283 284 283 283 283 283 282 280 278 278 278 277 276
296 296 297 297 297 297 297 295 293 288 287 289 289 291 288 283 278 277 275 278 279 278 281 281 281 283 284 285 283 281 280 280 275 282 280 276 277 279 280 279 280 280 281 282 283 282 281 280 280 278 277 276 274 273
296 296 296 296 296 296 296 296 296 295 290 288 285 280 279 277 270 270 268 274 274 279 280 281 279 281 284 283 279 281 277 275 280 277 275 277 279 280 279 278 278 278 278 278 277 277 277 276 275 275 272 271 271 268
296 296 296 296 296 296 296 295 294 291 285 279 276 275 272 274 273 274 276 276 279 280 281 281 281 281 283 279 277 274 276 278 276 272 275 278 279 278 278 277 276 273 273 273 272 272 270 268 266 266 266 267 267 265
296 296 296 296 296 295 295 293 292 287 284 280 279 273 273 275 278 281 282 283 283 285 284 281 280 281 280 277 280 276 276 272 273 275 277 276 279 277 276 275 272 270 269 268 269 268 266 265 265 264 264 266 265 263
295 293 292 296 295 294 292 289 285 284 283 282 279 277 277 278 280 283 282 284 286 285 285 285 280 278 278 279 277 275 274 272 276 276 277 277 278 278 276 273 272 270 269 268 268 267 266 266 267 266 265 265 264 265
292 287 295 295 294 293 292 283 281 278 279 280 276 276 279 280 280 280 283 285 287 284 283 281 274 275 281 277 276 280 275 278 278 277 278 279 278 276 274 269 268 268 268 268 267 268 267 267 268 269 268 267 268 268
288 293 295 293 289 287 282 281 279 279 277 278 277 278 281 283 279 280 285 285 286 285 284 281 283 279 276 276 279 280 277 277 275 276 278 278 277 274 272 270 269 270 269 269 270 269 269 269 270 270 270 270 271 270
292 292 294 293 288 282 279 280 281 275 274 277 280 280 281 282 283 284 284 285 286 286 284 283 280 279 280 282 279 275 273 275 276 274 271 269 273 271 270 270 270 271 271 271 272 271 272 273 273 273 272 272 273 273
294 293 293 293 290 281 279 280 285 280 277 278 279 281 281 280 282 282 283 284 285 284 281 279 277 280 284 281 278 278 276 274 274 272 272 272 273 272 272 272 272 273 273 273 273 272 273 274 274 274 274 273 273 272
291 290 291 287 284 282 282 280 279 281 281 278 279 280 275 281 281 281 282 284 283 280 278 278 277 277 279 280 279 277 275 276 275 276 274 272 274 274 274 273 274 274 273 273 273 273 272 274 273 273 273 270 269 270
289 290 285 285 281 280 280 284 282 281 281 281 281 281 274 271 272 280 283 281 281 278 277 277 277 278 279 278 278 279 278 278 276 274 274 274 273 273 273 273 273 273 273 273 274 273 272 272 272 271 270 267 267 268
289 286 282 281 274 271 275 284 279 280 273 279 280 276 274 276 276 281 278 279 277 273 275 277 278 280 278 278 278 278 278 277 275 274 274 274 273 273 273 274 274 272 272 273 274 273 271 269 267 268 266 267 267 266
287 278 272 273 272 266 277 272 281 279 279 277 277 273 272 274 280 274 274 275 273 272 275 276 277 277 277 276 275 275 275 274 272 272 274 273 272 272 274 274 274 275 276 274 273 271 270 269 266 267 266 265 264 264
273 271 271 265 274 273 271 268 274 275 267 272 270 270 275 278 271 271 273 272 273 272 273 275 278 279 278 276 273 274 273 275 274 273 272 274 273 273 272 272 273 273 274 272 270 269 267 266 266 265 265 265 263 262
264 265 270 267 267 269 269 266 266 268 266 267 268 272 273 272 270 269 273 272 276 276 278 278 279 278 277 278 276 275 275 276 275 273 273 274 274 274 272 271 271 271 273 274 270 268 266 265 265 264 263 261 259 260
266 265 273 276 274 274 269 268 273 268 265 266 271 273 269 268 268 271 270 270 271 276 277 277 277 279 277 274 273 273 273 274 274 272 272 272 272 274 274 273 273 273 272 272 270 269 266 265 264 262 260 259 259 260
271 270 268 270 274 273 264 263 265 267 271 273 272 270 269 270 269 269 269 270 275 276 276 273 273 275 274 272 271 270 269 269 269 270 270 269 268 268 268 269 269 268 268 269 268 267 266 265 262 261 260 258 255 254
273 271 273 267 271 273 273 270 269 270 270 272 270 268 269 268 266 266 268 269 272 274 274 273 271 270 270 270 270 270 271 272 271 269 268 267 267 266 266 267 266 266 267 266 266 264 263 262 260 259 257 255 252 251
270 272 268 265 268 270 272 273 271 269 268 268 268 267 267 265 264 264 265 268 269 269 268 271 269 270 268 268 267 268 269 271 272 272 270 268 268 266 266 266 265 266 267 266 263 262 261 258 257 255 254 253 253 252
272 270 267 267 269 266 265 267 268 269 268 268 265 268 267 264 264 263 264 264 264 264 266 266 266 268 268 268 269 269 268 268 269 269 269 267 266 265 265 264 264 264 263 262 260 259 257 257 256 255 253 251 250 250
269 269 268 265 266 266 264 264 261 261 259 261 261 258 261 262 264 264 264 264 266 266 264 264 266 267 269 270 270 270 267 267 268 267 267 266 265 264 263 262 262 262 261 259 258 257 257 256 255 254 252 250 249 249
267 268 268 268 266 266 266 269 268 264 259 259 259 258 259 263 265 263 263 263 265 267 265 265 266 267 266 266 266 266 267 267 267 268 266 265 264 263 262 262 261 260 259 257 257 256 255 253 252 251 249 248 247 247

GFSWCAN_sfc_thetae_108.txt.gz
Theta_e
300 299 299 298 299 299 298 298 298 297 297 299 300 301 301 301 301 299 297 297 297 291 289 291 290 287 287 288 284 287 286 286 287 283 284 282 281 282 281 281 280 279 278 277 278 275 273 283 284 279 281 282 282 282
299 299 299 299 299 298 297 296 298 298 299 300 300 301 300 301 300 298 294 297 299 295 289 295 294 294 292 291 290 289 287 286 290 288 287 285 282 284 281 279 284 279 282 282 280 279 283 284 282 284 285 282 282 281
298 298 298 298 298 298 297 297 298 298 299 300 300 300 300 300 299 298 297 300 298 294 291 292 290 295 297 296 298 290 291 290 288 294 290 288 282 287 280 280 281 284 285 283 282 281 282 283 283 283 284 282 282 282
298 298 298 297 297 297 298 298 299 299 299 300 300 300 300 299 299 299 297 298 298 294 287 288 296 293 298 298 297 297 294 294 294 294 289 287 284 289 284 283 283 283 285 282 280 282 282 282 282 282 282 282 281 281
298 298 297 297 297 296 298 299 299 299 300 300 299 298 298 300 300 300 299 298 297 295 286 287 293 294 296 297 296 296 295 293 293 291 290 286 289 288 288 286 282 284 280 282 280 283 283 281 283 284 281 280 281 280
297 297 297 297 298 298 298 298 298 299 299 299 299 299 298 297 294 298 295 299 299 299 291 285 292 292 294 296 295 294 294 294 294 292 291 291 291 289 286 282 282 284 284 285 282 283 283 282 283 284 282 281 281 280
297 297 298 298 298 298 298 298 299 299 299 299 299 299 298 299 298 294 291 296 296 299 292 285 286 292 293 294 295 295 294 294 294 292 291 290 289 291 288 282 282 284 285 285 285 284 281 282 280 282 282 281 282 281
297 298 297 298 298 298 298 298 299 298 299 298 297 297 297 298 298 294 296 295 296 295 294 285 283 288 293 291 290 294 293 294 292 292 292 290 289 291 281 281 283 283 284 284 284 286 284 283 282 281 282 281 280 279
297 297 297 297 298 298 298 298 298 297 296 295 295 295 297 294 293 294 296 294 298 295 287 288 283 282 293 291 292 292 293 288 293 290 289 290 287 281 282 282 282 283 283 283 283 283 283 281 281 281 281 281 280 278
297 297 297 297 297 298 298 298 296 295 295 295 296 292 285 293 295 295 294 292 291 291 292 286 290 284 291 290 288 289 291 287 285 285 290 287 281 283 285 285 285 285 284 285 281 280 281 281 281 281 281 281 280 279
297 297 297 297 297 298 297 296 295 294 296 294 289 288 295 296 294 290 286 285 287 284 289 289 289 287 292 287 286 289 286 287 281 284 283 283 282 281 283 283 285 286 286 286 287 287 286 285 283 281 280 281 280 280
296 297 297 297 297 296 295 294 294 295 294 293 294 295 295 289 286 283 281 284 284 281 287 287 287 290 291 294 289 288 283 285 277 288 282 281 282 282 283 283 284 285 285 285 286 286 286 284 284 282 281 279 279 278
297 297 297 297 296 297 296 296 295 294 294 296 290 287 286 283 279 277 275 280 281 286 287 288 285 290 291 292 287 286 280 280 288 282 281 284 282 282 282 282 282 282 283 283 283 283 283 282 281 280 277 276 275 273
296 296 297 296 296 296 295 294 294 293 294 287 283 277 280 278 281 282 283 284 286 288 288 288 284 285 288 283 284 279 282 283 278 276 276 285 282 281 282 282 280 279 279 279 279 278 277 275 274 274 274 273 272 271
296 296 296 296 295 295 294 293 293 294 289 284 284 277 279 283 285 285 286 287 288 291 290 288 286 287 284 281 283 280 278 276 280 281 284 284 282 281 280 280 278 276 275 276 276 274 272 272 272 271 272 273 271 270
296 295 295 295 294 293 292 292 292 292 288 285 283 282 284 285 284 285 287 285 292 292 292 291 284 282 280 282 279 277 276 277 282 284 283 282 281 281 280 278 277 276 276 275 274 273 272 271 272 271 271 270 270 270
294 292 294 294 293 292 292 292 291 285 284 283 282 284 284 285 284 285 286 287 294 290 285 287 280 278 284 280 277 282 282 283 284 283 283 284 282 281 279 276 274 274 274 274 274 274 273 272 272 272 271 271 272 272
293 295 294 293 293 292 291 290 287 284 281 283 283 283 285 285 285 284 288 292 291 288 288 282 287 279 279 278 281 284 283 282 283 283 282 282 282 280 278 277 275 275 274 274 274 273 273 273 274 274 274 274 275 275
294 294 294 293 291 290 286 285 287 281 282 284 285 286 286 286 287 289 290 290 292 292 290 286 281 281 282 284 285 283 282 283 282 281 279 279 280 277 277 276 275 276 275 275 275 276 276 276 276 276 276 276 276 276
293 293 292 292 292 288 282 283 288 283 281 283 285 283 285 285 286 286 287 288 289 288 285 282 285 288 287 287 288 287 286 284 281 280 279 278 279 277 277 277 278 277 277 277 277 276 276 276 277 277 278 278 278 277
292 292 292 293 290 289 285 284 282 283 284 282 283 284 283 284 283 284 285 287 286 285 285 288 287 285 286 287 287 286 283 283 284 284 282 278 279 280 278 278 278 278 278 277 276 277 278 278 278 278 278 278 278 277
292 291 292 290 285 285 283 285 283 285 283 283 282 283 283 282 282 283 287 284 283 287 287 287 287 286 285 284 284 284 283 282 281 279 279 279 278 278 278 278 278 278 278 278 279 278 279 279 279 278 277 275 275 275
291 290 288 285 280 280 279 285 281 281 278 280 283 280 281 280 283 286 282 285 286 283 284 285 284 285 284 282 282 282 282 281 281 280 279 280 280 280 279 279 280 279 278 279 280 279 278 276 276 276 275 275 274 272
289 283 280 278 279 276 280 279 284 282 281 279 279 276 279 280 282 282 280 284 284 282 282 282 284 282 281 281 282 281 281 282 280 279 280 279 278 278 279 279 280 280 281 280 279 278 277 277 274 275 274 274 273 271
280 277 279 274 278 277 276 277 278 278 276 276 275 277 279 281 279 279 279 283 282 282 282 283 284 284 283 281 280 280 278 281 280 278 279 281 280 279 278 279 279 280 280 279 278 277 276 275 275 274 273 273 270 269
274 275 275 276 276 276 276 274 275 276 277 276 278 280 282 280 276 277 280 282 281 283 283 283 284 283 282 283 281 281 280 281 281 279 278 280 280 280 278 276 276 277 280 281 279 276 274 274 273 271 270 269 267 268
273 275 278 280 280 279 278 278 279 278 276 276 278 277 278 274 275 279 280 280 281 281 282 281 283 284 284 281 280 280 281 281 280 279 279 279 279 281 281 278 278 279 279 279 278 277 274 273 271 270 269 268 268 267
279 278 274 277 277 279 276 277 277 277 279 281 280 276 275 276 278 279 280 279 280 281 280 279 280 282 282 281 279 278 276 275 275 276 276 275 275 275 276 277 277 276 278 278 277 276 274 272 270 268 267 265 263 264
277 280 279 274 276 278 278 278 279 281 281 281 280 279 279 280 278 279 278 279 279 280 279 278 277 278 277 277 277 278 277 278 277 274 275 274 274 272 274 274 274 274 273 272 271 272 271 270 268 266 264 263 261 261
277 280 278 276 274 276 280 281 281 278 277 278 277 277 277 277 276 275 276 277 277 278 280 279 278 278 277 277 275 275 277 279 279 279 277 275 276 273 273 273 272 272 272 271 268 266 264 263 262 261 260 260 260 259
277 278 277 277 276 277 275 275 275 276 275 276 274 276 278 275 276 274 274 276 276 275 275 276 275 277 276 276 276 275 274 276 275 276 277 275 273 273 272 272 272 271 269 267 266 265 264 264 263 262 260 259 257 257
276 276 275 273 274 273 273 274 275 275 274 274 275 271 273 274 275 275 272 272 273 274 274 276 276 275 277 278 278 277 276 275 273 272 273 273 272 270 270 269 269 269 267 266 266 265 264 263 262 260 258 257 256 256
273 274 273 272 271 271 273 273 273 272 271 272 273 271 273 274 274 272 270 271 272 275 274 274 274 275 274 274 274 273 273 273 272 271 270 269 269 268 269 269 268 267 266 265 264 263 262 260 259 258 257 255 254 254

GFSWCAN_sfc_thetae_111.txt.gz
Theta_e
295 295 299 300 300 300 300 300 298 298 297 298 298 299 299 299 300 301 300 301 300 295 293 295 295 292 292 292 287 289 287 288 288 284 285 284 284 284 284 284 282 281 280 280 281 278 276 285 285 280 282 284 283 285
299 299 299 299 299 300 299 298 298 297 299 299 298 300 300 300 301 301 297 301 302 296 292 298 297 298 296 295 293 291 291 290 292 289 289 287 284 286 284 279 287 281 284 283 281 280 284 285 283 285 286 284 283 283
299 299 298 298 298 298 298 297 297 298 298 298 299 300 301 301 301 300 298 300 301 297 293 294 292 297 300 299 301 291 293 294 292 298 292 290 284 290 283 283 284 285 288 286 283 283 283 284 285 285 285 283 283 284
299 299 298 298 297 297 297 297 297 298 299 299 299 300 300 301 301 300 299 302 299 294 288 289 298 295 300 300 299 301 298 299 298 297 292 289 285 291 286 286 285 286 287 285 282 283 283 284 284 284 283 283 282 283
298 298 298 297 297 297 297 297 298 299 299 299 300 300 300 300 301 302 302 302 303 296 287 288 295 297 299 299 298 299 299 298 296 292 290 288 291 289 288 288 283 285 283 283 282 285 284 283 284 284 282 281 282 281
297 297 297 296 297 298 298 298 298 299 299 299 299 299 299 299 296 300 297 301 303 301 292 286 294 294 297 298 297 296 298 299 298 293 291 291 293 292 287 283 284 284 286 287 283 286 285 285 285 285 282 282 282 282
297 297 296 297 298 298 298 298 299 299 299 299 300 299 299 299 301 296 294 297 297 303 293 286 287 293 295 296 297 296 298 298 297 295 289 291 291 291 288 283 283 285 286 286 286 285 282 283 281 284 283 283 283 283
297 297 297 298 298 299 299 299 299 299 298 298 299 299 300 299 299 296 298 298 298 298 295 287 285 289 295 292 291 298 294 296 295 293 294 290 291 291 283 283 284 286 285 285 285 287 286 284 284 283 284 283 282 281
297 297 297 298 298 298 298 298 297 296 296 295 296 299 301 298 296 295 297 297 304 298 290 289 285 283 294 292 293 294 296 290 295 288 287 291 288 283 284 283 283 285 284 283 285 284 284 282 282 283 283 283 281 281
297 297 297 297 298 298 297 297 296 296 296 296 299 295 286 295 296 298 299 296 295 295 295 289 291 286 292 292 291 291 293 290 285 288 293 287 283 285 286 288 287 286 286 286 282 281 282 282 282 282 283 283 282 281
297 297 297 298 298 297 296 295 295 295 297 297 293 290 296 296 298 295 290 289 290 287 291 292 291 288 296 289 287 292 288 289 283 285 285 283 282 283 286 286 287 287 287 287 288 287 287 285 283 283 282 283 282 282
297 297 297 297 296 295 295 294 295 298 296 295 296 298 298 294 291 285 284 286 286 283 290 289 290 291 293 296 290 290 285 287 278 289 284 282 283 285 285 285 285 286 287 287 287 286 286 285 285 283 282 281 281 280
297 297 296 297 297 296 296 295 295 295 295 299 294 288 290 287 282 281 277 282 284 287 290 291 287 291 293 294 289 288 282 282 290 282 282 284 284 284 284 284 284 286 287 287 286 286 286 284 284 282 280 279 278 276
297 297 297 296 296 295 295 294 294 296 297 290 287 280 283 281 283 284 286 286 288 289 291 290 286 286 290 285 287 281 283 286 280 279 280 285 283 283 284 284 283 282 282 283 282 282 281 280 279 279 278 278 275 274
297 297 296 295 295 294 293 293 295 299 294 286 287 280 281 285 286 286 288 289 291 293 292 290 289 288 285 283 286 283 280 278 281 282 283 284 284 283 282 282 281 280 280 280 280 278 277 276 276 275 276 276 275 274
296 295 294 294 294 294 293 295 297 296 292 287 285 284 287 286 284 286 286 288 293 293 295 293 286 284 282 284 280 279 279 279 281 283 283 284 282 282 282 281 281 280 280 279 278 277 276 275 275 276 275 274 273 273
296 294 294 294 294 294 295 296 294 288 287 285 283 286 287 287 285 285 288 290 297 292 286 288 281 279 287 282 279 285 282 283 283 283 284 284 283 282 281 280 279 279 279 278 277 277 277 277 275 275 273 274 275 275
294 295 294 294 295 296 295 294 290 287 282 286 284 285 286 287 286 287 290 293 293 291 289 284 288 280 280 280 282 284 284 283 285 284 284 284 284 282 281 280 279 279 278 278 278 277 276 276 276 276 276 276 277 277
295 295 293 294 293 293 289 289 291 282 283 286 286 287 287 287 289 290 291 294 296 296 291 287 283 282 282 287 286 284 285 286 283 283 282 283 283 282 281 280 279 279 278 278 278 278 279 279 279 278 278 278 278 279
294 293 293 293 295 290 284 286 292 285 282 284 286 286 286 286 288 289 291 292 291 290 286 285 285 287 287 288 289 288 287 287 285 282 281 281 281 280 280 280 280 279 279 280 280 279 279 279 279 280 280 280 280 279
295 294 294 295 294 291 288 286 284 285 284 282 284 285 283 288 286 287 288 290 288 286 286 289 287 286 290 289 290 290 288 288 287 286 284 280 281 282 281 281 280 281 280 280 279 279 279 280 280 281 281 281 280 280
294 293 294 292 288 288 285 287 285 286 285 284 284 285 282 282 283 285 288 284 286 287 289 288 288 288 288 287 287 288 287 286 285 284 284 283 281 280 280 280 280 280 280 280 281 280 281 281 281 280 279 278 278 277
292 293 291 288 283 283 281 288 282 282 280 281 284 281 281 282 284 288 282 286 288 288 290 289 288 289 286 286 286 285 285 285 285 284 283 284 283 283 281 281 281 280 280 281 282 282 280 280 280 279 278 277 276 274
291 286 282 281 282 278 282 281 284 283 283 282 282 278 280 281 284 283 282 287 286 286 286 284 287 285 284 284 285 284 284 286 284 283 284 282 281 280 281 281 281 282 282 282 281 280 279 279 278 278 277 276 275 274
281 279 281 277 282 279 278 279 279 281 277 279 277 279 281 283 281 282 281 286 286 284 284 285 285 287 286 286 286 284 282 285 284 282 282 283 282 280 280 280 281 282 283 281 280 279 279 278 279 277 276 276 274 273
275 279 279 279 279 278 279 276 277 278 280 278 280 283 283 282 278 279 284 284 284 284 284 285 285 284 285 287 284 283 283 285 285 282 282 283 281 280 279 278 278 279 282 283 281 279 278 278 277 275 275 273 271 271
275 277 282 284 283 282 281 282 282 280 278 277 281 280 280 276 277 283 284 285 283 283 284 286 286 286 284 284 284 284 285 284 283 282 282 282 283 284 283 281 279 281 282 283 282 280 278 276 275 274 272 272 271 271
281 281 276 280 280 282 278 279 278 278 280 283 283 278 277 278 280 284 285 283 282 283 283 283 284 285 285 283 282 281 280 280 280 280 279 279 280 280 281 281 281 281 281 282 281 280 278 276 275 273 271 270 269 269
280 283 282 277 278 279 280 280 280 283 286 285 281 281 283 285 284 284 283 283 283 282 281 281 281 282 281 281 282 282 281 281 279 276 276 276 276 276 278 279 279 278 278 277 277 277 276 274 273 271 268 267 267 266
280 283 280 279 276 277 282 284 283 282 283 283 283 283 283 284 283 282 282 282 281 281 283 283 282 281 280 279 278 278 281 282 283 281 279 278 278 277 277 277 276 276 275 274 271 269 269 267 266 265 265 264 264 263
283 282 280 280 279 282 281 280 280 280 280 281 281 280 283 281 283 281 281 282 281 281 280 279 280 281 280 280 279 277 276 279 279 280 281 279 277 277 276 276 276 275 273 271 269 269 267 268 267 266 265 263 261 261
279 279 279 277 279 278 278 279 280 279 280 279 280 279 279 279 279 278 276 277 276 277 278 280 279 279 281 282 282 281 281 279 278 278 277 277 276 275 275 274 273 273 271 270 269 269 268 267 266 264 262 261 261 260
277 278 277 277 277 276 278 277 277 277 277 277 278 278 278 278 278 274 274 276 277 278 279 280 280 280 279 279 279 278 278 278 277 276 275 274 273 273 273 273 272 271 270 269 268 268 266 265 264 262 261 259 259 259

GFSWCAN_sfc_thetae_114.txt.gz
Theta_e
296 296 297 297 298 297 299 299 298 300 300 300 300 300 301 300 300 298 301 301 297 294 294 297 297 295 294 293 287 290 287 288 287 284 284 284 284 284 284 285 283 281 279 279 280 277 275 285 285 280 281 284 284 285
295 297 296 297 297 298 298 300 299 299 299 299 299 299 299 299 299 300 297 302 302 296 293 298 298 298 297 297 294 292 291 290 292 288 289 288 285 287 285 279 287 281 285 282 280 279 283 284 283 285 286 284 283 283
300 299 300 300 299 299 299 299 298 298 298 298 299 299 299 300 301 301 300 302 299 294 294 293 292 298 301 301 303 290 293 296 294 298 294 290 285 289 283 283 285 287 289 285 283 282 282 284 284 285 285 283 284 284
298 298 298 299 298 298 298 298 297 298 298 298 299 299 300 301 301 301 299 303 300 295 288 289 299 296 300 301 302 302 299 299 299 296 292 290 286 292 286 287 286 287 288 286 282 282 283 283 284 283 283 283 282 283
298 297 297 297 298 298 298 297 298 298 297 298 299 300 300 301 301 300 304 304 305 296 287 288 296 297 299 300 299 301 300 298 296 292 290 288 290 289 289 288 284 286 283 283 281 285 284 282 284 284 282 281 282 281
298 298 297 297 297 297 297 297 298 298 299 300 301 301 301 302 301 302 298 301 302 300 291 285 294 294 297 298 298 298 298 298 296 293 291 291 293 292 286 282 284 286 287 288 284 286 286 285 285 285 282 282 282 282
297 297 298 297 297 297 296 298 299 299 300 300 300 300 300 299 301 296 292 297 298 303 294 287 286 293 296 296 296 296 298 297 296 293 290 290 290 291 289 282 283 285 286 286 287 285 282 283 282 284 283 283 284 283
296 297 297 298 298 298 298 298 299 299 299 300 300 300 300 300 298 295 297 299 299 298 295 287 285 288 296 291 290 296 293 295 295 293 293 289 291 291 282 283 284 285 285 285 286 287 285 285 284 283 284 283 282 281
297 297 297 298 298 298 298 297 297 297 297 298 300 300 301 299 295 294 297 298 306 298 290 288 284 282 295 291 292 293 295 289 294 290 289 290 288 283 284 282 283 284 284 284 285 284 284 282 282 283 283 282 281 281
297 297 298 298 297 297 297 297 297 296 297 298 299 294 286 295 296 298 299 296 295 294 294 289 292 286 291 291 290 290 293 289 284 287 291 287 282 286 287 288 287 286 286 286 282 281 282 281 282 282 283 283 282 281
297 297 297 297 297 296 296 296 296 297 297 298 294 292 296 296 298 295 291 289 290 287 291 291 290 288 295 288 287 292 288 288 282 285 285 283 281 283 287 286 288 287 287 287 287 286 286 285 284 283 283 283 282 282
297 296 296 297 297 297 297 298 298 298 297 296 296 298 298 294 292 286 284 287 286 283 290 290 290 292 292 295 289 289 285 286 280 289 284 281 282 285 285 285 286 287 287 287 288 287 287 285 285 284 283 282 280 277
297 297 297 296 296 296 296 296 296 296 295 299 294 288 290 289 282 282 277 282 283 288 291 292 288 291 292 293 288 287 282 282 289 282 281 282 284 284 285 285 285 287 287 287 287 287 286 284 284 282 279 277 276 275
297 297 296 295 295 294 295 296 296 298 297 291 287 280 284 282 283 284 285 286 289 292 292 290 287 287 291 285 287 281 284 285 280 278 280 283 283 284 285 285 284 283 284 284 284 283 282 280 279 279 279 277 275 274
297 296 295 294 295 295 294 295 296 299 295 287 287 280 281 285 286 287 290 290 292 294 292 290 289 288 286 283 285 283 280 278 281 280 282 283 284 283 283 282 282 281 282 281 280 279 278 278 277 276 277 276 275 274
296 295 293 295 295 295 296 297 297 296 293 287 286 284 287 285 284 285 287 289 295 295 296 292 286 284 283 284 281 280 279 278 280 282 283 284 283 283 282 282 281 281 281 280 279 278 277 277 276 276 276 275 274 274
296 292 294 295 296 296 297 296 295 290 287 285 284 286 286 286 284 285 288 292 296 292 286 288 282 280 286 282 280 285 281 282 283 283 284 284 283 282 282 281 281 281 280 279 278 278 277 278 277 275 273 274 274 274
293 294 294 295 296 296 296 296 291 287 283 286 284 284 287 286 285 287 291 294 293 290 289 284 287 281 281 280 282 283 283 284 284 284 284 284 283 283 282 280 280 280 279 279 278 278 277 276 276 276 275 275 276 275
293 294 294 295 294 293 288 289 292 282 284 286 287 288 288 288 289 290 292 294 295 294 291 287 284 282 283 286 284 284 284 285 282 282 282 283 283 282 281 280 280 279 279 278 278 278 278 279 279 277 278 278 277 278
294 294 295 295 295 290 285 287 292 286 283 284 287 286 287 286 288 290 291 292 291 289 286 285 285 285 286 286 288 287 286 286 284 281 279 281 282 281 280 280 279 279 279 279 280 280 280 279 279 280 280 280 279 279
295 294 295 296 293 291 287 286 284 285 284 282 285 285 283 287 286 287 288 290 288 286 286 287 285 286 288 289 289 289 287 287 285 286 282 279 281 281 280 282 280 280 280 280 279 280 280 279 280 281 282 282 281 278
294 294 294 293 289 288 286 288 285 287 285 283 284 285 283 282 283 285 288 285 285 287 288 287 287 287 287 287 288 289 288 287 286 285 284 283 281 280 280 280 280 280 281 281 281 280 281 281 281 281 280 279 277 277
294 293 291 289 284 283 281 289 283 284 281 281 284 281 281 282 284 287 282 286 287 290 290 288 289 288 287 287 287 286 287 287 285 284 284 284 283 284 282 281 282 282 281 281 282 282 281 281 280 279 279 278 276 275
292 286 283 282 283 279 283 282 285 284 283 282 281 280 281 281 284 283 282 287 285 287 287 286 286 284 286 285 285 284 285 286 284 284 284 282 281 281 282 281 282 283 283 283 282 281 280 280 279 278 277 275 275 274
282 280 282 278 283 281 279 279 280 281 278 279 279 280 281 284 281 282 282 285 285 284 284 285 285 286 285 285 284 283 283 286 283 281 284 283 282 281 280 281 282 283 284 282 280 280 279 279 279 278 277 276 274 273
277 280 279 279 280 279 279 276 278 278 280 279 280 282 283 281 279 279 283 284 284 284 284 285 285 285 284 286 283 283 283 286 285 282 282 283 282 281 280 279 279 281 284 284 281 280 278 279 277 276 276 274 272 272
276 278 282 285 283 282 280 282 282 280 278 277 281 280 280 277 278 282 284 284 283 284 285 286 286 285 285 283 285 285 285 284 285 283 283 283 283 284 283 281 279 281 284 283 283 280 279 277 276 275 273 273 273 272
281 282 277 280 281 282 278 279 278 278 280 283 283 278 277 279 280 283 283 283 283 283 283 284 285 286 285 283 283 282 281 282 281 281 280 280 281 281 282 283 283 282 283 284 282 281 279 277 275 274 272 271 270 271
280 283 282 277 279 280 280 279 280 283 285 285 281 280 282 285 284 283 283 283 284 283 282 281 281 284 283 282 283 282 281 280 278 275 276 275 275 277 280 281 281 281 281 280 279 279 278 276 274 272 270 269 268 267
280 284 280 279 276 277 282 284 284 283 284 284 284 285 284 284 283 284 283 282 281 281 284 284 282 281 280 280 279 279 282 283 283 281 279 277 277 278 278 278 277 277 276 275 272 271 271 270 269 268 267 266 265 264
284 283 281 281 280 284 282 282 282 281 281 281 283 281 283 282 283 283 282 283 283 283 282 281 281 282 281 281 279 278 278 281 281 281 281 279 279 278 278 277 276 274 272 270 270 268 267 267 266 265 265 264 262 261
281 280 280 278 280 280 281 281 281 279 281 279 280 281 280 279 279 279 277 279 279 278 279 281 280 280 282 283 284 284 282 280 279 279 279 279 278 278 277 275 274 273 272 271 270 269 269 267 267 265 263 262 262 261
279 280 279 279 279 277 280 279 279 278 279 278 279 280 280 279 278 275 276 277 277 278 281 281 283 283 282 282 281 280 280 280 279 279 277 276 275 275 275 274 273 272 271 270 269 269 267 266 264 263 262 260 259 259

GFSWCAN_sfc_thetae_117.txt.gz
Theta_e
297 297 297 297 298 298 298 299 297 299 299 300 301 300 300 302 302 297 296 300 295 289 290 297 297 292 293 290 284 286 284 285 283 280 279 278 276 280 280 281 280 278 276 273 272 270 271 283 283 278 280 283 281 282
297 297 297 297 297 298 298 298 298 296 300 301 300 301 302 302 302 299 294 299 300 292 291 297 296 298 297 295 289 287 286 285 286 281 282 281 277 279 279 275 286 275 277 279 276 274 282 284 282 285 285 282 282 281
296 297 297 297 297 297 298 298 298 299 300 300 300 301 301 300 300 300 296 297 297 290 290 291 291 296 299 297 296 285 287 293 291 292 285 283 280 282 276 276 279 283 287 278 279 281 282 282 284 284 283 282 283 283
300 300 299 298 299 298 298 298 298 299 299 299 299 299 299 300 300 301 297 299 297 292 285 288 298 294 299 299 298 297 294 295 294 291 286 284 281 288 279 282 280 282 285 282 279 282 282 283 283 282 282 282 282 282
298 298 299 299 298 298 298 297 298 299 299 298 300 299 299 300 301 300 299 300 300 292 284 286 293 297 299 298 297 297 295 292 290 286 284 283 285 284 283 283 278 282 280 281 277 282 282 281 283 283 281 281 281 281
297 297 298 298 298 297 297 297 297 298 298 300 299 300 301 301 302 297 290 298 299 296 288 282 292 293 296 297 296 296 295 294 291 287 285 286 291 286 278 276 282 283 287 288 283 285 282 283 284 283 281 282 282 281
297 296 297 297 297 297 297 296 296 299 299 299 300 300 300 301 297 292 289 294 298 297 288 282 283 291 295 295 292 292 294 292 290 287 285 284 286 287 284 277 281 285 286 285 285 283 281 282 281 283 283 283 283 282
297 296 296 297 297 297 297 299 299 298 300 300 300 300 300 300 297 292 294 298 298 294 292 282 281 285 293 286 285 291 288 290 290 287 287 285 285 285 276 282 283 284 284 284 284 285 283 283 283 282 283 282 281 280
297 296 297 296 297 297 297 297 298 299 300 300 300 300 297 294 291 291 298 298 299 294 283 283 279 277 291 288 288 287 290 281 289 283 284 285 279 280 279 282 283 283 283 284 284 283 282 281 281 281 282 281 280 279
297 297 297 297 297 297 297 297 297 297 298 299 294 291 285 290 298 298 296 290 290 290 290 284 286 279 288 285 282 283 284 281 278 281 285 280 280 285 284 285 286 286 285 284 281 280 281 280 280 280 281 281 280 279
297 297 296 297 296 296 297 297 298 298 299 295 289 286 292 297 293 290 283 283 284 282 286 286 286 282 290 282 281 284 280 279 277 280 279 277 275 282 286 285 286 286 286 284 284 283 283 282 281 281 281 281 280 280
297 297 297 297 297 297 297 298 298 296 293 293 293 295 295 291 286 282 280 283 282 281 285 283 285 287 287 290 280 282 279 279 278 284 276 275 280 283 284 284 284 285 286 287 286 284 283 283 283 282 281 278 276 275
297 296 295 296 296 297 297 297 297 298 297 295 292 286 286 283 276 277 273 279 277 282 285 284 283 285 286 286 280 280 274 271 282 272 274 279 282 283 283 284 284 285 286 285 283 282 282 281 281 278 275 274 274 273
296 296 295 296 296 296 296 297 298 297 295 286 281 274 278 275 278 282 282 279 282 285 284 282 280 280 280 279 278 271 276 278 271 269 276 279 282 282 283 284 283 283 284 281 279 279 278 277 276 275 274 274 273 272
296 295 295 295 296 296 297 297 297 296 290 283 283 276 277 282 283 285 284 285 285 285 283 281 280 280 277 275 279 277 272 269 275 276 280 281 282 282 281 281 281 280 279 278 279 277 277 276 275 274 274 274 273 272
296 295 292 296 296 297 297 297 295 293 287 283 283 280 281 281 283 285 285 281 287 283 284 284 280 275 275 277 277 274 276 273 277 279 282 282 281 281 281 280 281 281 279 277 276 276 275 275 274 273 273 273 272 272
295 289 294 296 296 297 298 293 289 285 284 283 282 285 283 283 283 284 286 283 288 283 279 280 275 278 279 276 277 277 277 279 280 281 282 283 281 280 280 280 280 279 278 276 276 275 275 275 273 273 272 272 274 272
290 292 296 297 296 295 292 291 285 284 282 284 280 283 284 285 285 285 286 284 284 282 281 281 282 279 273 273 277 280 281 282 282 282 282 282 281 281 280 279 279 279 278 277 277 276 275 275 274 274 274 274 274 274
292 293 296 296 294 290 285 286 287 280 282 282 284 284 284 284 285 286 286 286 288 289 283 281 281 276 277 282 281 281 281 281 280 281 282 282 281 280 279 279 279 278 277 277 277 276 276 277 276 275 274 274 273 273
296 295 295 296 296 287 284 284 289 282 281 282 284 283 283 283 284 283 283 283 285 284 282 281 281 283 283 283 284 284 283 282 280 278 278 280 280 279 278 279 278 279 278 278 278 276 277 276 275 276 275 275 273 273
294 293 295 294 290 288 285 283 283 284 283 281 283 283 281 284 283 283 283 286 284 283 282 283 283 284 285 286 286 286 285 284 282 280 277 278 279 279 279 279 279 278 276 275 273 274 273 273 274 276 273 275 275 277
291 294 290 290 285 284 283 286 283 284 283 282 282 283 281 280 281 282 284 283 283 283 284 284 284 284 284 284 285 286 285 284 284 283 281 279 278 278 278 277 277 275 274 273 274 272 273 276 277 276 274 274 274 274
293 291 286 286 279 277 279 284 280 282 279 279 283 280 279 280 282 284 280 283 283 284 285 285 285 285 284 283 283 283 283 282 281 281 279 279 280 279 278 276 276 279 277 275 278 277 276 276 275 275 274 274 273 272
291 283 276 277 278 272 281 279 282 281 281 281 280 277 278 279 282 280 280 282 282 283 284 284 284 283 283 282 281 280 280 282 282 281 282 281 279 279 277 276 278 279 279 278 279 278 278 276 276 274 273 272 271 270
274 273 275 270 278 273 272 274 275 277 271 275 275 277 279 280 276 275 278 280 281 282 282 283 283 283 281 281 280 278 280 283 281 280 280 281 280 279 278 279 277 278 280 279 278 278 276 276 275 273 272 272 271 269
268 273 272 273 273 273 275 269 270 271 273 271 273 279 279 274 271 271 279 281 281 282 282 283 283 282 282 282 280 280 279 283 282 279 280 281 280 279 278 276 277 277 280 280 278 276 275 276 275 273 273 272 270 267
268 270 279 282 280 279 274 276 279 274 270 269 273 271 273 266 268 276 280 281 281 282 282 283 283 283 282 281 281 281 281 282 281 279 278 279 279 279 277 275 275 274 279 279 279 277 276 275 274 272 270 270 269 268
276 277 269 274 275 278 270 271 270 269 272 278 276 269 268 269 274 280 280 281 281 281 281 282 282 282 282 280 279 279 278 277 275 275 275 275 275 276 274 279 279 279 280 281 279 278 276 274 272 271 270 268 267 266
275 279 279 267 271 273 272 272 272 276 279 277 271 271 273 280 282 281 280 280 282 281 280 279 280 281 281 280 280 280 279 278 270 267 265 267 269 272 275 277 278 278 280 279 279 277 275 273 272 270 268 265 264 264
275 279 274 270 267 269 274 278 280 281 280 278 277 278 276 280 281 282 282 280 279 280 281 281 280 280 279 278 278 278 280 279 275 272 271 268 269 273 273 274 274 274 274 273 273 272 272 269 268 266 265 263 261 260
280 278 276 275 274 276 280 281 281 280 280 280 281 277 273 280 281 280 279 280 281 282 281 280 280 281 279 279 278 277 277 279 274 271 277 276 275 274 273 273 271 271 270 269 268 267 266 265 264 262 261 260 258 256
275 274 274 273 277 278 278 278 274 279 279 278 278 279 279 278 276 276 275 277 278 278 278 279 279 279 281 281 281 280 276 278 276 278 276 276 275 274 273 271 270 270 269 267 267 266 265 263 263 262 259 257 256 254
275 275 273 274 272 275 276 271 273 272 276 276 277 278 279 277 274 269 272 272 273 275 277 279 281 281 280 280 279 278 277 277 278 279 277 275 273 273 272 272 271 270 268 268 268 266 264 262 261 259 257 255 254 253

GFSWCAN_sfc_thetae_123.txt.gz
Theta_e
295 296 296 296 296 297 297 297 297 298 298 298 298 299 299 300 301 297 292 294 291 286 288 291 292 288 288 287 285 288 287 287 284 281 280 278 276 280 278 279 280 279 277 274 273 270 270 282 282 277 276 278 279 277
295 296 297 296 296 297 297 297 297 297 298 298 298 299 300 300 300 299 288 295 296 289 287 295 293 295 294 295 290 289 287 285 286 282 282 282 278 275 278 275 284 275 277 274 277 275 278 280 277 280 281 279 280 278
295 296 296 297 297 297 298 297 297 298 297 298 298 299 299 299 300 298 291 295 294 288 288 289 289 294 297 297 298 285 288 291 289 291 286 285 282 279 277 278 281 282 284 277 279 278 278 280 281 281 280 280 277 278
295 295 295 297 298 298 298 298 297 296 296 298 298 298 299 299 300 299 293 294 293 290 283 284 295 292 298 299 297 294 293 295 294 292 287 284 283 286 280 282 279 281 283 280 279 280 281 281 282 282 281 281 280 278
297 294 296 297 298 297 297 298 298 299 299 299 298 298 299 300 301 298 296 298 298 290 284 286 292 297 299 299 297 297 295 292 289 285 284 283 284 283 282 281 278 280 280 278 275 282 280 280 281 281 280 279 278 277
297 296 296 296 297 297 298 297 297 297 298 299 300 300 301 301 301 294 286 296 300 299 286 283 292 292 296 297 295 294 294 291 289 286 284 285 289 283 278 274 279 281 284 284 279 282 280 281 282 281 279 280 278 278
298 298 298 298 298 298 298 299 299 300 300 300 300 300 300 300 295 289 289 294 299 299 287 283 284 290 294 294 291 291 293 290 288 285 283 283 284 286 277 274 275 283 283 282 282 282 280 279 277 280 280 280 282 280
298 298 297 297 298 298 299 299 299 300 300 300 300 301 301 299 298 293 294 299 299 294 290 281 283 286 292 285 285 290 287 287 286 284 284 282 283 281 277 278 281 283 283 283 284 283 281 280 280 280 281 280 279 278
296 296 297 298 298 298 299 299 299 300 300 300 301 300 297 294 289 290 298 299 297 292 283 282 279 280 290 285 287 288 289 281 285 281 281 282 278 275 279 280 282 283 282 282 282 280 280 280 280 281 280 280 279 278
296 296 296 298 299 299 299 299 300 300 300 299 296 291 284 289 298 300 295 289 289 289 287 282 283 280 286 284 283 284 282 280 279 280 283 278 279 281 282 284 284 285 284 283 280 278 278 278 279 279 279 280 280 280
296 296 297 297 298 299 299 299 300 300 299 292 281 281 290 297 293 287 280 281 281 282 283 283 284 283 288 282 281 281 279 279 276 279 278 275 276 280 283 284 285 285 284 284 281 281 281 280 279 279 279 280 280 280
297 296 298 298 298 298 298 299 300 295 291 292 291 293 291 287 281 280 278 281 281 280 281 281 282 284 284 286 281 281 279 279 276 280 276 272 275 282 283 284 284 284 283 281 281 280 280 280 280 280 279 279 278 277
297 298 298 298 298 298 299 299 299 297 296 291 288 283 283 280 275 274 272 277 277 280 282 281 280 282 283 283 279 279 273 270 279 274 273 276 281 282 283 283 283 283 282 281 280 280 280 280 280 279 276 275 275 273
296 297 298 298 298 298 299 299 299 296 291 283 279 273 274 272 276 281 280 281 282 280 281 281 279 279 277 279 275 271 273 275 268 266 272 278 281 282 283 284 284 283 282 282 279 278 276 275 274 274 275 274 273 272
295 296 296 297 298 298 298 298 297 292 286 282 281 273 275 282 284 284 283 278 280 279 280 280 279 279 275 274 277 274 270 266 272 270 271 279 282 282 283 283 283 281 280 278 273 274 274 274 274 273 273 274 273 272
295 293 292 297 298 298 298 295 291 289 284 282 282 277 282 282 283 285 283 279 284 280 281 282 278 273 273 275 274 271 273 269 267 276 280 282 282 282 281 281 280 280 279 275 275 275 274 273 273 273 273 273 273 272
293 287 295 297 297 296 296 289 287 284 282 281 280 280 281 282 282 283 283 282 284 281 275 278 273 276 276 273 276 276 266 272 278 280 281 282 281 280 280 279 278 277 276 275 275 276 274 274 274 273 272 272 273 272
287 289 296 297 294 292 288 286 283 282 280 282 279 281 280 282 279 277 278 279 280 279 279 278 279 275 270 270 273 278 279 279 281 281 281 280 280 280 281 279 278 278 276 275 275 275 274 274 274 274 274 274 273 272
292 292 296 296 292 287 282 283 283 279 281 283 283 283 282 279 279 283 282 280 282 283 281 280 277 274 276 280 279 275 280 278 278 280 280 280 280 280 279 279 278 277 276 276 276 275 275 277 276 275 275 274 272 273
295 294 295 295 293 285 282 281 285 280 277 280 279 279 278 278 281 279 278 280 282 281 280 280 279 281 280 281 276 276 281 281 280 278 278 278 279 279 278 278 278 278 277 277 276 276 276 276 275 275 274 273 273 273
289 289 292 289 285 284 281 280 281 280 280 277 277 280 280 282 276 276 277 281 279 279 280 282 282 277 282 284 284 283 282 282 281 275 273 273 278 277 276 278 279 278 276 274 273 274 275 274 274 274 273 272 272 273
285 292 284 285 281 282 280 281 280 280 281 281 282 282 280 276 273 276 281 279 281 281 282 282 282 283 284 284 284 284 284 283 282 280 279 277 277 276 275 274 276 272 272 271 272 270 271 273 273 273 271 270 271 271
288 286 281 280 275 273 275 279 277 280 276 275 279 277 277 276 280 283 279 281 280 282 283 283 284 284 283 283 283 283 284 283 281 280 278 275 273 270 272 272 271 270 270 271 274 271 271 272 272 272 272 272 271 270
286 280 272 271 273 267 274 277 279 279 278 278 277 273 277 278 281 279 275 281 280 282 282 282 283 281 282 282 280 280 278 282 280 279 279 276 273 271 273 272 272 273 274 274 274 273 273 272 272 272 272 270 269 268
272 270 270 264 271 268 266 268 269 273 269 272 274 275 276 280 276 277 277 278 280 280 280 282 282 282 280 279 279 279 280 282 280 279 278 280 278 277 276 276 273 274 276 273 271 273 272 272 273 272 271 270 268 266
265 267 269 266 267 269 270 266 265 267 268 267 269 275 273 276 271 270 278 279 280 280 281 281 281 280 281 281 280 279 280 282 281 279 279 280 280 278 277 275 275 273 275 276 275 273 272 272 272 271 270 269 268 265
264 265 274 279 277 276 269 269 274 268 265 265 267 265 264 262 262 276 279 279 280 281 281 282 282 282 281 280 279 279 280 280 280 277 277 277 278 279 277 274 272 273 276 277 276 275 273 273 272 272 270 268 267 266
270 270 266 267 268 271 263 262 262 264 265 274 271 264 264 266 271 277 279 279 281 281 280 280 281 281 280 278 278 277 275 276 276 276 276 276 276 266 266 267 270 276 276 277 276 276 275 274 273 272 270 268 267 266
269 269 271 263 263 264 264 266 265 275 278 275 265 266 271 279 280 279 279 279 280 280 279 279 278 279 278 277 277 277 277 277 276 270 264 263 263 272 275 274 276 270 272 276 278 277 276 275 274 272 270 268 266 264
269 270 267 260 262 264 265 277 277 279 279 275 275 275 275 278 279 280 280 279 278 278 279 279 279 278 277 277 276 276 277 276 276 274 269 265 267 264 272 278 278 277 275 274 273 273 272 269 268 266 264 263 261 260
274 267 266 266 265 271 276 279 279 279 278 277 277 275 273 278 278 275 276 275 278 279 279 278 279 279 278 277 276 276 275 276 272 271 266 264 266 266 267 269 273 274 273 271 269 268 267 266 265 264 263 261 260 259
263 264 265 265 268 269 271 277 276 275 271 269 275 277 276 276 275 272 267 270 275 277 278 279 279 278 280 279 279 278 276 273 275 273 273 272 271 269 270 269 270 270 269 268 268 267 266 265 264 263 262 260 258 257
273 271 263 263 264 268 269 264 263 265 265 264 271 269 273 272 269 264 266 265 267 271 272 273 275 277 277 279 279 276 273 273 273 276 275 273 271 271 269 269 269 268 268 266 266 265 264 263 262 261 260 258 257 256